Weather History for MMMD - May, 2013

Change the Weather History Date:

Friday, May 10, 2013

  Actual Average Record
Temperature  
Mean Temperature 90 °F -  
Max Temperature 107 °F - - ()
Min Temperature 72 °F - - ()
Cooling Degree Days 24    
Growing Degree Days 40 (Base 50)    
Moisture  
Dew Point 65 °F    
Average Humidity 50    
Maximum Humidity 88    
Minimum Humidity 16    
Precipitation  
Precipitation 0.00 in - - ()
Sea Level Pressure  
Sea Level Pressure 29.90 in    
Wind  
Wind Speed 14 mph ()    
Max Wind Speed 21 mph    
Max Gust Speed 32 mph    
Visibility 6.4 miles    
Events      
T = Trace of Precipitation, MM = Missing Value Source: Averaged Metar Reports

Daily Weather History Graph

Daily Weather History Graph

Search for Another Location

Airport or City:

Trip Planner

Search our weather history database for the weather conditions in past years. The results will help you decide how hot, cold, wet, or windy it might be!

Date:

Astronomy

May. 10, 2013 Rise Set
Actual Time 6:23 AM CDT 7:27 PM CDT
Civil Twilight 5:59 AM CDT 7:50 PM CDT
Nautical Twilight 5:31 AM CDT 8:18 PM CDT
Astronomical Twilight 5:03 AM CDT 8:47 PM CDT
Moon 6:48 AM CDT (5/10) 8:13 PM CDT (5/10)
Length of Visible Light 13h 51m
Length of Day
13h 04m
New Moon, 0% of the Moon is Illuminated
May 10
New Moon
May 17
First Quarter
May 24
Full
May 31
Last Quarter
Jun 8
New

Hourly Weather History & Observations

Time (CDT) Temp. Heat Index Dew Point Humidity Pressure Visibility Wind Dir Wind Speed Gust Speed Precip Events Conditions
12:49 AM 80.6 °F 82.3 °F 64.4 °F 58% 29.98 in 7.0 mi SE 17.3 mph - N/A   Clear
12:50 AM 80 °F - 69 °F 61% 29.99 in 3 mi SE 11.2 mph - -   Scattered Clouds
1:46 AM 78.8 °F - 66.2 °F 65% 29.97 in 7.0 mi ESE 17.3 mph - N/A   Clear
2:46 AM 77.0 °F - 68.0 °F 74% 29.94 in 7.0 mi East 13.8 mph - N/A   Clear
3:47 AM 75.2 °F - 68.0 °F 78% 29.96 in 7.0 mi SE 13.8 mph - N/A   Clear
3:50 AM 76 °F - 71 °F 80% 29.94 in 3 mi ESE 8.9 mph - -   Scattered Clouds
4:46 AM 75.2 °F - 68.0 °F 78% 29.92 in 7.0 mi ESE 15.0 mph - N/A   Clear
5:46 AM 73.4 °F - 68.0 °F 83% 29.92 in 7.0 mi ESE 11.5 mph - N/A   Scattered Clouds
6:43 AM 73.4 °F - 69.8 °F 88% 29.93 in 6.0 mi ESE 16.1 mph - N/A   Mostly Cloudy
6:50 AM 75 °F - 72 °F 88% 29.95 in 6 mi ESE 6.7 mph - -   Clear
7:46 AM 77.0 °F - 71.6 °F 83% 29.95 in 6.0 mi SE 13.8 mph - N/A   Partly Cloudy
8:12 AM 78.8 °F - 71.6 °F 78% 29.95 in 6.0 mi SE 17.3 mph 28.8 mph N/A   Mostly Cloudy
8:43 AM 82.4 °F 87.2 °F 71.6 °F 70% 29.95 in 6.0 mi SE 20.7 mph - N/A   Mostly Cloudy
9:10 AM 84.2 °F 88.4 °F 69.8 °F 62% 29.94 in 7.0 mi SE 17.3 mph 28.8 mph N/A   Mostly Cloudy
9:45 AM 86.0 °F 89.4 °F 68.0 °F 55% 29.93 in 7.0 mi SE 20.7 mph - N/A   Partly Cloudy
9:50 AM 88 °F - 72 °F 51% 30.01 in 6 mi ESE 11.2 mph - -   Scattered Clouds
10:49 AM 91.4 °F 93.2 °F 64.4 °F 41% 29.94 in 7.0 mi SSE 18.4 mph - N/A   Scattered Clouds
11:45 AM 95.0 °F 95.2 °F 60.8 °F 32% 29.92 in 7.0 mi SSE 18.4 mph - N/A   Mostly Cloudy
12:43 PM 96.8 °F 97.1 °F 60.8 °F 30% 29.88 in 7.0 mi SSE 16.1 mph - N/A   Mostly Cloudy
12:50 PM 101 °F - 69 °F 26% 29.90 in 6 mi SE 11.2 mph - -   Clear
1:42 PM 100.4 °F 99.7 °F 57.2 °F 24% 29.85 in 7.0 mi SE 15.0 mph - N/A   Mostly Cloudy
2:46 PM 102.2 °F 100.9 °F 55.4 °F 21% 29.82 in 7.0 mi ESE 20.7 mph - N/A   Partly Cloudy
3:47 PM 102.2 °F 100.4 °F 53.6 °F 20% 29.79 in 7.0 mi SSE 13.8 mph - N/A   Partly Cloudy
3:50 PM 105 °F - 62 °F 16% 29.81 in 6 mi SE 6.7 mph - -   Scattered Clouds
4:46 PM 102.2 °F 100.4 °F 53.6 °F 20% 29.78 in 7.0 mi SE 17.3 mph - N/A   Scattered Clouds
5:45 PM 102.2 °F 100.4 °F 53.6 °F 20% 29.78 in 7.0 mi ESE 11.5 mph - N/A   Scattered Clouds
6:46 PM 98.6 °F 97.2 °F 55.4 °F 24% 29.81 in 7.0 mi ESE 17.3 mph - N/A   Scattered Clouds
6:50 PM 98 °F - 69 °F 29% 29.82 in 6 mi ESE 11.2 mph - -   Scattered Clouds
7:41 PM 96.8 °F 96.2 °F 59.0 °F 28% 29.81 in 7.0 mi SE 17.3 mph - N/A   Scattered Clouds
8:40 PM 93.2 °F 93.3 °F 60.8 °F 34% 29.84 in 7.0 mi SE 20.7 mph 32.2 mph N/A   Clear
9:47 PM 87.8 °F 89.4 °F 64.4 °F 46% 29.86 in 7.0 mi ESE 20.7 mph - N/A   Clear
9:50 PM 90 °F - 65 °F 34% 29.89 in 3 mi ESE 13.4 mph - -   Scattered Clouds
10:41 PM 86.0 °F 88.2 °F 66.2 °F 51% 29.91 in 7.0 mi SE 19.6 mph - N/A   Clear
11:46 PM 84.2 °F 87.3 °F 68.0 °F 58% 29.93 in 7.0 mi SE 17.3 mph - N/A   Clear